{"data":{"norad_id":69876,"intl_designator":"2026-156H","name":"ION SCV-023","alt_names":[],"object_type":"PAYLOAD","status":"ACTIVE","operator":null,"country":"IT","launch_date":"2026-07-07","launch_site_code":"AFWTR","launch_vehicle":null,"mission":null,"orbit_class":"UNKNOWN","rcs_meters":null,"size_class":null,"mass_kg":null,"dimensions":null,"purposes":[],"wikipedia_slug":null,"has_3d_model":false,"image_url":null,"decayed_at":null,"tle_current":{"epoch":"2026-09-20T04:37:21.338112Z","epoch_age_seconds":48191,"freshness":"FRESH","line1":"1 69876U 26156H   26263.19260808  .00000465  00000+0  51374-4 0  9997","line2":"2 69876  97.5920 161.4263 0005368 264.5112  95.5495 14.91867893 11168","mean_motion":14.91867893,"eccentricity":0.0005368,"inclination_deg":97.592,"raan_deg":161.4263,"arg_perigee_deg":264.5112,"mean_anomaly_deg":95.5495,"bstar":5.1374e-5,"rev_number":1116,"period_min":96.523291824741,"perigee_km":588.36989284119,"apogee_km":595.85315165467,"semimajor_km":6970.2485222479,"source":"CELESTRAK","updated_at":"2026-09-20T09:00:25.164140Z"}}}